RH
91 89 89 89 91 91 92 94 95 98 99 99 98 93 96 100 100 100 100 100 100 100 100 100 100 100 100 98 95 90 87 85 86 91 89 88 90 89 92 95 95 95 92 93 94 95 94 80 75 85 86 86 90 86 82 81 84 87 87 86 84 86 93 95 96 98 100 99 100 100 98 99 100 100 99 95 91 89 88 90 90 87 87 90 92
91 89 89 91 93 92 94 99 99 99 99 100 99 95 97 100 100 100 100 100 100 100 100 100 100 99 98 99 96 93 92 90 93 98 99 98 92 85 89 95 97 98 98 98 96 95 94 85 82 87 84 87 94 91 87 85 86 87 85 87 87 89 96 101 99 96 99 100 98 100 100 100 100 99 100 100 97 96 94 95 93 90 91 95 96
92 92 94 94 96 97 99 100 100 99 100 100 100 98 99 100 100 100 100 100 100 100 100 99 100 100 98 97 95 95 93 93 98 99 100 100 92 84 87 94 98 99 100 96 94 96 96 90 87 88 87 90 95 95 92 88 86 87 85 84 89 95 99 100 98 94 98 100 97 98 98 98 100 100 99 100 99 100 99 97 96 95 95 97 97
94 94 98 99 99 100 100 100 100 100 100 100 100 99 100 100 99 100 100 100 100 100 100 100 100 100 100 98 94 95 94 96 100 99 100 99 92 88 90 95 98 99 100 95 93 97 95 92 91 90 90 89 92 94 91 89 87 86 86 84 86 95 101 100 98 96 94 93 95 98 97 95 98 99 100 101 99 100 100 99 98 97 98 98 98
94 95 98 100 100 100 99 100 99 100 100 100 100 100 100 100 100 100 99 100 100 100 100 100 100 100 99 100 99 98 98 99 100 99 100 99 95 90 85 89 96 99 99 97 98 99 94 93 92 91 90 86 88 91 87 88 89 85 85 86 83 85 94 100 99 98 93 85 84 90 94 96 99 99 98 99 100 100 99 99 100 99 99 99 99
95 96 98 99 100 100 100 100 100 100 100 99 100 100 100 100 99 100 100 100 100 99 100 99 100 100 99 100 100 100 100 99 100 100 100 98 97 94 87 88 97 99 97 96 97 97 95 95 90 89 93 90 89 90 87 88 89 87 84 85 83 78 84 98 101 98 95 87 78 76 80 83 90 96 97 99 100 99 97 95 97 100 99 100 100
98 97 97 99 100 100 99 100 100 99 100 100 99 97 96 97 99 100 99 100 100 99 100 100 99 100 100 100 100 100 100 100 100 100 99 97 97 98 97 96 100 99 95 94 96 95 97 97 88 85 92 93 90 88 87 88 87 87 85 84 83 79 79 91 100 99 96 90 81 77 79 76 80 89 93 97 99 100 98 94 95 99 99 99 100
100 99 98 99 99 100 100 100 99 98 98 94 86 78 75 83 95 101 100 99 100 100 99 100 100 100 100 100 100 99 99 100 100 100 100 99 99 100 100 99 100 99 95 95 96 95 97 98 90 85 88 89 88 87 85 87 88 88 88 86 83 81 78 81 91 96 94 90 83 85 88 83 81 82 82 87 94 98 100 98 97 98 99 99 100
100 99 99 99 98 100 98 95 97 97 89 77 72 71 70 79 94 99 100 100 99 100 100 100 100 100 100 100 100 100 100 100 100 100 99 100 100 100 100 100 100 100 98 96 97 97 97 98 93 86 85 85 86 86 84 86 90 91 90 88 84 83 80 78 82 85 87 85 82 87 92 88 87 85 80 83 91 96 97 99 100 99 100 100 99
97 98 99 99 99 100 94 86 93 98 92 85 85 88 89 93 98 99 100 100 99 100 100 100 100 100 100 100 99 99 99 99 99 100 100 100 100 100 100 100 100 99 99 99 100 98 96 98 96 89 87 87 85 85 86 87 89 91 92 89 85 83 83 82 80 78 82 82 79 85 90 90 91 90 87 87 91 95 96 98 100 98 99 100 100
96 96 96 97 98 99 90 80 86 92 91 94 96 95 96 98 100 100 100 100 100 100 100 100 100 100 100 100 100 100 100 101 100 100 100 99 100 100 100 100 100 100 99 99 100 99 95 97 98 94 92 91 86 85 87 88 89 91 93 91 86 83 82 82 81 80 82 83 81 83 85 83 84 84 85 86 88 95 98 98 98 98 99 100 100
94 95 95 96 96 97 94 86 88 88 84 88 92 91 91 92 94 97 98 99 100 99 100 100 99 100 99 93 89 89 93 99 100 99 100 100 100 100 100 100 100 100 100 98 98 98 95 95 97 96 95 91 86 86 88 90 93 94 94 91 87 84 82 82 83 83 83 83 83 84 84 81 77 76 77 80 83 86 92 97 98 97 98 100 99
94 95 96 96 96 97 99 95 93 92 86 85 87 87 85 85 86 89 91 94 96 96 97 98 99 98 90 79 72 70 77 91 100 99 96 97 99 100 100 100 100 100 101 96 94 95 94 92 93 94 94 90 85 87 91 92 94 94 94 91 87 84 83 82 82 82 82 82 83 85 86 83 79 77 76 80 82 81 89 99 99 95 96 99 100
94 95 95 96 98 98 99 100 97 96 93 89 89 88 85 82 82 83 84 89 95 96 97 98 99 93 82 75 72 70 77 87 91 89 87 89 96 100 100 100 100 99 99 96 93 93 93 92 92 92 93 92 89 90 93 92 91 92 91 90 87 83 82 83 82 82 83 82 83 85 86 83 81 79 77 79 80 80 88 98 99 95 96 99 100
92 93 94 94 97 98 99 100 99 99 98 97 96 94 91 88 86 85 84 87 91 94 95 94 95 93 87 83 79 80 85 84 78 80 84 87 93 99 99 100 100 97 93 92 90 89 90 93 95 95 95 94 93 93 93 91 90 91 90 89 87 84 84 84 83 84 85 84 84 85 85 82 81 80 78 78 77 76 78 85 91 95 97 98 97
91 91 92 92 94 96 99 99 100 100 100 100 100 99 98 97 96 94 90 87 85 88 90 87 89 94 94 90 86 86 86 79 79 86 88 88 92 95 97 99 100 98 94 93 92 89 86 88 92 94 94 94 93 92 92 91 91 91 90 88 87 86 85 84 84 84 84 82 83 84 83 81 81 81 80 78 78 77 74 74 81 88 94 97 97
91 90 90 91 92 93 96 98 99 100 100 100 100 100 100 100 99 99 97 93 89 90 92 87 87 92 91 89 90 91 88 82 85 89 86 87 92 94 96 99 100 98 96 93 92 88 86 86 87 86 88 93 93 91 91 92 91 90 90 89 88 86 85 84 83 83 82 82 83 83 82 81 82 83 82 82 80 79 77 74 75 78 82 91 98
87 88 87 88 90 91 93 95 96 98 99 99 99 97 99 100 100 100 99 99 98 97 99 94 89 88 85 84 86 88 89 91 93 92 89 92 96 96 97 98 96 96 94 92 90 87 86 86 85 83 83 90 95 93 91 91 90 91 91 89 87 85 84 84 84 83 83 84 84 83 84 83 82 83 83 84 82 81 80 76 74 74 73 79 89
86 86 86 86 88 89 92 93 94 96 97 98 96 93 95 97 99 100 99 100 100 99 100 99 94 91 88 87 87 87 89 93 93 93 96 98 98 98 98 95 93 94 93 93 92 87 85 84 84 83 79 85 97 97 91 89 88 89 89 87 85 84 84 85 85 85 84 84 84 84 85 83 80 81 81 81 81 81 82 78 76 79 77 72 76
88 86 86 86 86 88 90 91 92 94 96 97 96 95 95 95 95 97 98 98 99 100 100 100 99 98 98 96 95 95 97 97 95 93 93 94 92 93 97 95 92 94 94 94 93 87 83 83 83 82 77 83 96 96 90 88 87 85 85 85 86 87 88 88 87 86 84 85 86 85 85 82 80 83 83 81 81 82 82 79 77 81 82 76 71
87 85 85 84 85 87 88 90 92 94 95 95 96 97 95 95 95 96 97 97 97 96 96 99 100 100 100 98 96 95 97 98 98 97 95 94 93 94 97 95 92 94 94 93 90 84 82 82 80 77 76 83 93 91 86 87 86 85 86 86 88 89 91 91 89 87 87 89 89 88 86 84 84 86 86 84 84 84 84 82 80 82 82 79 74
85 83 83 82 83 85 86 89 91 92 94 94 94 96 95 96 99 99 99 99 98 95 94 95 97 99 100 99 97 92 91 94 96 99 99 96 96 98 98 95 93 94 93 89 85 82 81 82 76 73 76 82 87 86 84 86 86 86 88 88 90 89 90 92 91 90 91 93 93 91 88 87 89 89 85 83 83 85 86 84 83 83 80 78 75
83 81 81 81 81 83 85 87 90 90 92 92 92 94 96 97 99 99 100 100 100 99 97 95 94 95 97 99 100 95 92 94 97 100 100 94 95 99 99 96 94 93 90 86 82 80 81 80 74 73 76 77 78 79 80 84 87 88 88 89 89 88 87 90 91 92 93 94 96 95 90 90 91 87 83 84 84 83 84 84 83 82 79 77 75
82 81 81 80 79 81 83 86 88 88 89 90 92 93 95 97 98 99 100 100 100 100 99 99 98 96 95 96 100 100 97 99 100 100 100 96 96 99 100 99 97 93 88 82 80 80 79 77 75 75 76 75 74 74 75 80 84 84 84 85 86 86 84 86 88 90 91 92 95 95 91 90 89 85 83 86 86 82 81 81 81 81 79 77 76
84 82 82 80 78 80 82 84 85 86 87 89 91 93 95 98 99 99 100 100 100 100 99 100 100 99 96 93 97 101 99 100 100 99 100 99 98 99 100 100 97 92 86 80 80 80 76 76 78 77 75 74 73 73 73 75 79 79 78 80 82 82 81 83 86 88 88 88 92 93 92 91 89 83 81 84 85 82 79 78 77 77 77 77 76
86 84 83 81 80 80 81 83 84 84 85 87 90 92 94 97 99 100 100 100 100 99 99 100 100 100 98 92 94 100 100 99 100 99 98 98 98 98 99 100 97 90 84 80 79 78 76 78 79 75 72 72 72 73 73 74 75 74 75 78 78 78 79 82 84 84 85 86 89 91 92 93 90 83 80 82 82 79 75 73 72 70 71 73 74
85 85 84 82 81 80 80 81 82 82 83 85 88 92 94 96 99 99 100 100 100 100 100 100 99 100 100 95 93 97 99 100 100 98 97 97 98 99 98 99 97 90 84 82 79 77 77 79 78 73 71 70 71 72 73 73 74 73 74 75 76 77 80 82 82 83 84 85 87 89 89 88 86 82 81 80 76 72 69 67 67 68 68 70 73
86 85 86 85 82 80 80 79 80 80 82 85 87 90 93 96 98 98 100 100 100 100 100 100 100 99 100 99 97 97 98 100 99 97 96 97 99 100 99 98 95 89 85 82 79 77 78 78 75 71 70 70 71 71 71 73 73 73 73 73 75 77 79 81 83 84 85 86 87 86 83 80 79 77 77 75 70 66 66 65 65 66 64 63 67
88 86 86 85 81 79 79 79 79 79 82 85 87 89 92 94 95 96 98 100 100 100 99 100 100 99 100 100 99 99 99 99 100 99 98 98 100 100 99 97 93 88 85 81 77 77 77 75 71 69 70 71 71 70 70 71 71 71 72 72 73 74 76 80 85 88 89 88 85 82 78 77 75 71 67 66 64 60 59 58 58 57 56 57 61
89 87 85 84 81 79 79 79 79 79 81 84 86 89 90 92 93 94 97 100 100 100 100 100 100 100 100 99 99 100 100 99 99 100 99 100 100 100 98 95 92 88 83 78 77 77 74 70 69 69 69 70 69 69 68 67 67 68 69 69 69 71 73 78 83 88 89 85 81 78 73 69 67 62 57 54 53 51 49 50 51 52 52 54 55
89 88 85 84 82 81 79 79 79 79 81 83 86 88 88 89 91 92 95 99 100 99 100 100 100 100 100 100 99 100 100 99 99 100 100 99 100 100 97 94 91 87 81 79 77 73 70 69 68 67 67 68 68 67 65 63 64 63 63 65 68 71 76 80 83 85 84 79 74 70 65 60 56 52 49 48 48 48 49 50 51 52 52 51 50
91 90 88 87 85 82 80 79 79 79 80 83 85 87 86 87 90 91 94 98 99 100 100 99 100 100 100 100 100 99 100 100 100 100 100 100 100 100 98 95 92 85 80 79 76 69 67 69 68 65 66 66 65 63 61 59 59 59 62 67 72 75 80 83 82 80 76 70 66 63 59 56 54 52 51 52 52 53 52 51 52 53 53 53 54
92 92 91 90 88 85 82 80 79 79 80 81 84 85 85 86 88 90 93 97 99 100 100 100 100 100 100 100 100 100 100 100 100 100 100 100 100 100 97 92 89 85 80 78 73 67 66 67 66 64 64 63 61 58 56 56 56 59 64 70 75 78 81 82 77 71 67 63 60 59 58 56 56 55 53 53 53 55 56 55 55 56 56 58 60
94 94 93 92 91 88 84 80 77 77 77 77 80 81 82 84 86 89 92 95 98 100 99 100 100 99 100 100 99 100 100 99 100 100 100 100 100 98 95 90 87 85 82 77 70 66 66 65 64 63 61 60 57 53 52 54 56 60 66 71 76 81 80 76 69 64 61 60 57 56 56 56 55 52 52 54 53 52 53 53 54 56 60 64 65
96 96 95 93 92 90 87 81 77 76 75 74 76 75 75 78 83 88 91 93 96 99 99 100 100 99 100 100 100 100 98 98 100 100 99 100 100 98 95 92 89 86 83 76 68 65 65 64 62 61 59 56 54 52 53 56 59 64 68 72 78 82 77 70 65 61 58 56 55 55 54 55 54 53 55 56 54 51 53 56 60 65 69 71 71
98 98 97 94 91 89 86 81 77 75 73 72 72 70 69 73 77 83 88 91 93 97 99 100 100 100 100 100 100 99 95 94 97 99 100 100 98 97 95 92 89 86 82 78 72 66 63 62 61 58 56 55 55 55 55 56 59 65 69 74 79 79 73 67 66 65 62 59 58 59 58 59 62 65 67 66 63 61 63 67 72 76 76 75 74
95 93 91 87 84 83 82 79 76 74 73 73 71 67 65 66 70 74 80 86 90 94 97 99 100 100 100 100 100 99 96 92 90 92 98 100 96 93 92 89 87 85 81 81 81 73 66 66 65 61 58 58 60 62 60 57 57 61 67 73 77 76 72 71 72 74 74 74 72 69 67 69 72 76 80 79 75 71 71 74 77 75 71 69 68
90 87 84 81 79 80 78 76 74 73 74 74 70 67 65 64 64 65 68 75 83 90 96 99 100 100 100 100 100 100 100 96 90 88 91 96 95 92 89 86 84 82 79 81 86 82 76 75 73 68 64 62 67 73 70 65 63 63 65 70 74 74 74 73 72 73 76 80 81 78 75 76 77 81 85 86 82 77 75 75 73 68 63 60 59
84 82 81 79 78 75 72 71 71 73 74 74 71 69 68 68 67 64 61 63 71 83 92 96 99 100 100 99 99 99 100 100 96 91 88 88 87 86 85 82 81 80 78 80 85 84 81 84 83 79 77 76 81 85 80 73 71 68 65 68 71 72 73 72 71 72 74 75 75 73 71 70 71 73 75 76 74 70 67 68 67 64 60 56 54
82 80 78 78 76 74 74 75 75 73 72 71 71 71 73 74 73 69 65 60 61 73 85 92 96 99 100 100 99 99 100 99 98 95 91 88 83 80 80 80 80 80 80 82 85 83 83 89 91 90 91 91 91 91 85 77 74 71 69 69 68 68 71 74 75 74 70 66 62 59 57 56 55 56 56 56 59 60 61 63 63 61 60 59 57
84 80 77 77 76 75 76 76 73 70 69 69 70 73 75 75 74 75 74 67 59 61 70 81 90 96 98 100 100 100 99 99 99 96 92 88 84 79 78 79 80 81 82 85 88 87 88 93 93 92 95 95 91 89 87 81 75 71 68 65 63 66 72 74 73 70 65 60 55 50 46 44 45 48 48 48 51 52 53 54 54 56 60 62 62
81 78 76 77 76 74 73 72 69 66 67 68 70 74 76 75 74 77 77 70 61 57 56 62 74 88 95 97 98 99 99 98 98 97 92 88 84 80 78 77 76 76 79 82 87 89 91 93 92 91 93 94 90 87 85 82 76 71 67 61 59 66 70 68 68 69 64 57 50 44 40 38 40 45 47 46 47 48 49 52 56 60 62 63 62
81 79 77 75 76 75 74 72 69 65 64 66 69 74 75 75 76 75 70 66 64 59 53 51 58 72 86 94 95 95 96 96 96 95 91 87 84 81 79 77 75 75 76 79 83 86 87 89 91 92 93 94 93 89 86 84 79 74 70 63 61 67 69 66 66 65 58 50 45 43 42 41 41 45 48 51 54 55 57 59 61 60 58 57 54
80 78 75 72 73 76 74 70 66 65 64 64 67 70 72 74 74 69 64 64 63 58 53 52 54 61 74 86 91 91 91 93 94 94 92 89 86 82 80 79 78 76 76 78 80 81 82 85 87 89 88 88 88 86 85 84 82 80 77 73 71 71 71 69 65 58 51 47 48 50 53 52 51 53 57 58 59 58 57 56 54 52 51 49 47
78 75 72 70 71 72 72 70 67 66 65 64 64 65 68 70 69 65 62 63 62 58 55 54 55 59 66 74 82 86 87 88 90 92 94 94 92 89 84 81 79 78 77 78 80 79 78 79 80 80 81 80 80 80 78 76 76 76 75 74 73 71 69 67 61 55 52 54 57 60 62 60 59 59 59 58 56 54 52 51 50 49 47 46 45
78 75 71 68 68 68 69 69 68 67 66 65 62 62 64 65 64 62 61 61 60 61 60 57 53 55 58 64 74 82 85 85 87 89 91 93 94 93 90 84 81 80 79 79 79 77 74 73 72 71 71 71 71 73 73 73 71 69 67 66 65 63 61 60 58 57 60 63 64 64 63 61 59 58 56 54 54 53 52 51 49 48 46 44 44
80 76 71 68 67 67 67 67 67 65 63 62 60 61 63 62 61 61 61 61 61 61 63 63 58 53 52 56 66 77 83 85 86 86 87 89 89 89 89 85 80 78 77 75 75 74 72 70 68 66 64 61 59 58 60 63 65 67 69 70 69 65 61 59 59 63 66 66 65 63 61 58 57 55 53 54 54 54 53 52 51 49 48 48 51
80 75 71 69 68 67 66 65 65 62 59 57 58 60 62 62 61 60 59 61 63 62 62 64 64 59 53 51 55 65 75 82 86 86 85 86 86 86 86 84 81 77 75 74 73 72 69 66 63 60 57 53 50 48 47 48 52 58 64 70 72 71 68 64 64 67 69 67 64 62 59 57 56 55 55 57 57 57 56 56 54 53 53 57 63
79 75 71 70 69 67 64 64 63 61 57 56 56 57 59 61 62 61 60 60 62 63 63 65 66 65 60 54 51 55 64 73 82 85 86 87 87 86 85 84 81 77 74 73 71 67 64 61 58 56 53 48 45 44 45 46 50 55 58 61 63 64 64 64 66 67 66 64 62 60 59 58 57 58 59 60 60 60 60 60 59 59 61 66 71
76 73 69 67 66 64 62 62 61 58 54 51 52 54 57 57 58 58 58 58 60 61 64 66 67 68 65 59 54 53 55 61 68 75 80 82 83 84 84 83 83 78 73 69 66 62 60 58 55 54 53 49 45 47 50 50 50 51 53 54 57 58 59 63 67 67 63 61 61 61 61 61 60 60 62 63 64 63 63 63 64 64 66 70 72
73 71 69 68 66 63 61 60 59 55 50 45 44 48 53 55 55 52 51 54 58 60 63 65 66 68 68 64 59 56 54 54 56 60 65 70 72 74 75 75 76 74 70 66 62 59 58 59 56 53 52 51 52 54 55 53 50 50 51 55 58 61 63 67 68 64 61 61 61 62 63 63 62 63 66 67 66 66 66 67 68 69 70 71 72
Wind_Speed
5 8 11 12 13 13 15 17 20 20 21 22 23 24 24 22 21 21 21 20 19 20 21 22 23 22 22 23 25 27 27 25 25 27 27 26 24 24 25 24 23 23 23 24 24 22 18 16 15 14 14 17 20 19 18 17 16 16 14 15 15 15 14 12 14 18 18 14 11 10 9 8 8 7 9 10 10 10 10 10 9 8 7 6 6
4 8 10 9 8 10 13 15 18 21 22 23 24 26 25 24 22 22 22 21 20 21 22 25 26 25 25 26 27 27 26 25 24 23 22 21 21 24 25 25 26 25 24 25 26 23 19 17 17 16 15 17 20 19 16 16 17 16 16 15 15 17 17 15 17 18 15 12 10 9 8 6 4 3 5 8 9 11 12 11 10 9 7 6 6
3 5 5 7 7 9 12 15 18 22 22 23 24 26 24 23 22 22 21 20 20 21 23 26 27 26 26 27 27 26 25 24 22 19 18 18 21 25 26 27 26 23 23 25 26 24 19 17 18 17 16 18 20 18 16 16 17 16 17 17 17 18 17 18 20 16 15 15 11 6 4 4 3 2 4 4 4 8 12 11 10 9 8 7 6
5 5 4 6 7 10 13 17 21 22 21 23 24 24 23 22 21 20 19 19 20 22 23 24 25 26 26 26 26 24 23 21 19 17 17 18 21 25 26 25 23 22 24 26 25 21 18 18 18 18 18 19 20 19 17 18 16 16 18 19 20 19 17 20 19 15 19 19 9 3 2 2 2 3 5 4 3 7 9 10 10 10 8 8 7
6 6 4 6 9 12 15 19 21 21 22 25 26 25 23 21 17 15 16 18 19 20 21 21 21 21 21 21 20 20 19 17 16 16 17 18 19 23 23 21 19 22 26 25 22 19 18 20 19 18 19 19 20 20 18 18 16 17 18 20 21 19 19 22 18 15 20 18 10 6 3 1 2 5 7 4 5 7 7 7 8 9 8 7 7
4 4 4 6 8 11 15 20 21 21 22 22 20 16 12 9 9 11 14 16 17 16 16 18 18 18 17 17 17 17 16 16 17 17 18 19 19 20 20 19 19 23 25 22 20 18 18 20 18 17 20 21 21 19 18 18 18 18 20 20 21 20 20 22 19 18 20 15 10 8 4 3 5 9 6 2 4 5 4 5 6 5 7 7 8
1 1 2 3 6 10 13 13 10 8 5 1 7 9 5 6 8 12 15 17 16 14 14 15 17 18 18 17 16 16 15 15 17 18 20 21 19 19 19 19 20 22 22 20 18 17 18 17 17 18 21 22 21 19 18 18 19 19 20 20 20 20 20 21 21 21 20 15 11 9 4 3 10 12 7 3 4 4 5 6 5 4 6 8 8
2 1 1 1 4 5 1 9 16 19 17 14 13 9 6 10 13 15 16 16 14 13 14 15 16 17 18 18 16 15 14 14 16 17 18 19 18 18 20 20 20 21 20 17 16 17 18 18 18 19 21 21 21 20 19 18 18 19 19 19 20 21 21 21 22 22 21 18 14 9 3 4 12 13 10 8 5 3 4 4 5 5 6 7 7
5 3 2 2 4 8 15 20 22 23 20 8 4 7 9 11 13 14 14 13 12 11 12 15 16 16 15 16 14 12 11 12 14 15 15 15 16 17 18 18 18 19 18 17 18 19 19 19 18 18 19 19 19 20 19 17 17 19 20 20 20 22 21 21 21 22 22 21 17 11 5 8 12 9 9 10 6 4 5 3 5 5 4 6 6
7 6 6 9 12 13 16 18 18 17 15 9 1 5 7 9 10 10 9 9 9 8 9 12 15 16 15 14 11 8 8 9 11 12 13 14 15 16 17 17 17 16 16 18 19 19 16 17 17 17 18 19 19 19 19 19 18 19 21 21 21 22 22 21 19 20 22 21 19 15 10 12 11 6 9 10 6 5 4 4 7 6 4 5 6
7 7 9 13 16 16 14 12 14 15 13 11 8 5 5 8 11 10 8 8 9 9 9 9 11 13 11 7 4 4 5 9 11 13 14 15 16 17 17 17 17 16 16 16 16 15 15 16 16 17 18 20 21 20 20 21 20 20 21 22 22 21 21 20 19 19 20 20 19 17 15 14 11 8 12 14 9 6 5 5 8 7 5 5 6
8 7 8 11 13 15 14 10 10 14 13 11 10 10 11 11 11 12 11 11 12 13 12 12 10 7 4 2 4 9 13 15 15 15 15 16 18 18 18 18 18 17 16 16 15 13 14 16 17 17 18 20 21 21 20 21 21 21 21 22 21 19 20 19 19 19 19 19 19 19 17 14 12 10 11 16 13 10 9 8 8 8 5 4 6
8 8 8 9 9 12 13 11 12 15 14 12 10 10 12 13 14 15 14 14 14 13 13 13 8 3 5 6 12 20 24 21 17 16 17 18 20 19 19 20 19 17 16 16 15 14 15 17 18 18 19 20 20 20 20 20 21 21 20 20 19 18 19 18 18 18 19 18 19 20 18 14 13 11 9 13 14 11 12 9 8 9 5 3 6
8 8 8 9 10 12 12 11 11 12 13 11 9 9 11 12 14 14 13 13 13 12 10 9 8 9 12 14 17 23 25 21 17 19 21 21 21 21 22 22 21 20 18 17 16 15 16 17 18 19 19 19 19 20 21 20 20 20 19 19 18 17 17 17 17 18 18 17 17 19 19 14 13 11 9 11 14 13 12 12 11 8 5 5 5
8 9 10 10 13 16 16 16 15 14 14 12 10 10 11 11 12 11 11 10 10 10 8 8 10 14 15 16 18 21 22 19 19 22 22 22 21 22 23 23 23 22 20 19 19 19 18 18 18 18 19 19 20 20 20 19 19 19 18 18 18 17 17 17 17 17 17 17 16 17 17 14 12 11 10 10 13 13 13 16 17 10 4 4 4
8 9 10 11 15 18 18 18 18 18 18 17 16 15 13 12 11 10 9 8 8 9 7 8 9 11 13 14 17 19 20 20 21 22 21 22 22 22 23 24 24 23 20 20 21 21 20 19 18 18 18 19 20 20 20 20 20 19 18 18 18 18 18 17 17 17 16 15 15 16 15 13 11 11 11 9 11 12 12 16 19 16 9 4 3
8 8 9 11 14 16 17 17 18 18 18 18 18 17 15 14 13 12 12 10 10 9 9 9 9 10 12 13 15 19 21 20 21 21 20 21 21 20 21 23 24 22 20 20 21 21 20 19 18 18 17 19 20 21 21 20 20 19 18 18 18 17 17 16 15 15 14 14 14 14 13 12 10 10 11 10 10 11 12 14 18 20 15 8 5
9 9 9 11 13 15 16 17 17 18 18 18 18 17 15 14 15 15 16 16 15 12 10 11 11 12 14 14 16 20 22 21 20 20 19 20 20 20 20 21 22 21 20 20 20 20 20 19 19 20 19 19 20 21 20 20 20 19 18 18 18 17 16 15 14 13 12 12 12 12 12 10 10 10 10 9 10 11 13 15 17 20 18 11 8
8 9 8 10 13 14 16 18 19 20 20 20 20 19 18 17 18 18 18 18 17 15 12 12 14 15 15 15 16 19 20 21 21 19 19 19 19 20 20 19 20 20 20 21 21 21 21 20 19 20 19 18 20 21 19 19 18 19 19 18 17 17 16 15 13 12 11 11 11 11 11 10 9 8 8 8 10 11 13 14 17 20 17 11 10
8 8 8 9 12 13 15 17 18 19 20 21 21 21 21 20 20 20 19 18 17 17 16 14 15 17 16 15 17 18 17 18 21 21 21 21 20 21 20 19 19 20 21 22 22 22 22 21 19 19 18 18 20 20 17 17 18 18 18 17 16 16 15 14 13 12 11 11 12 11 10 9 8 8 7 7 9 11 12 14 17 19 16 11 9
8 8 8 9 11 13 15 17 17 19 20 22 22 21 22 22 21 21 20 20 19 19 19 18 16 16 16 16 19 18 14 17 22 22 23 23 22 21 20 19 20 21 22 22 23 23 23 21 20 18 18 18 19 18 16 16 17 17 16 15 15 15 14 13 13 13 12 11 11 11 10 9 8 7 7 8 10 11 13 14 17 18 16 12 9
8 8 8 10 12 13 15 18 19 21 21 22 22 22 22 23 23 22 22 22 21 20 19 19 19 18 16 15 17 16 14 18 23 23 24 24 22 21 20 19 20 22 22 22 23 24 24 22 20 18 17 16 16 16 15 16 17 16 16 15 14 14 14 13 13 12 12 12 11 10 10 10 9 8 8 9 11 13 14 15 18 18 17 14 11
8 8 9 11 13 14 16 18 20 20 20 21 21 21 21 21 23 23 24 24 24 23 20 18 18 19 18 15 13 14 18 22 23 24 24 22 21 20 19 20 21 21 22 23 23 24 23 22 20 18 17 16 15 15 15 16 17 16 16 15 14 14 13 13 13 12 11 11 11 10 10 10 9 8 9 10 11 12 13 14 17 18 17 15 12
8 8 10 12 14 15 16 17 18 19 19 20 20 20 20 21 23 24 24 25 24 24 23 20 17 17 17 15 12 13 18 22 23 23 24 22 20 21 20 21 22 22 23 23 23 23 22 20 20 18 17 17 17 16 15 16 16 16 15 15 14 13 12 12 11 11 10 11 11 11 11 11 10 10 10 11 11 11 12 13 15 17 17 15 13
8 9 10 12 13 14 15 15 16 16 18 19 19 20 20 21 23 24 24 24 24 23 22 21 18 16 15 15 14 14 15 19 22 22 21 20 20 20 21 23 24 23 24 23 22 22 21 20 20 19 18 18 17 17 16 15 15 15 13 13 13 12 11 10 9 9 10 10 11 11 11 11 11 11 12 12 12 11 11 12 13 14 15 14 14
8 8 9 10 11 13 14 14 15 16 17 19 19 21 22 22 23 25 24 24 23 22 20 20 19 17 14 13 14 15 15 17 20 20 19 20 20 22 23 25 26 25 25 23 22 22 21 20 21 20 18 17 17 17 16 15 15 14 13 12 13 12 10 9 9 10 9 10 10 11 11 11 11 12 13 12 11 11 11 12 12 11 12 13 14
6 7 8 9 11 13 15 15 15 17 18 19 19 21 22 23 25 27 25 24 24 22 19 18 18 17 14 13 12 14 16 16 17 17 18 20 22 24 25 26 27 25 25 24 23 22 21 21 22 20 18 17 17 16 15 15 15 14 13 13 13 12 10 10 10 10 9 9 9 9 10 11 12 12 12 12 11 10 11 12 12 11 10 11 14
7 7 9 10 9 11 14 15 15 16 18 18 19 21 21 22 24 26 26 25 24 22 20 17 16 16 15 14 13 12 15 16 16 16 18 20 23 26 26 27 26 24 23 24 23 22 21 22 22 20 18 17 17 16 16 15 15 14 13 13 13 12 11 10 11 11 10 9 8 8 9 11 11 12 13 13 11 10 11 11 12 12 11 11 14
8 8 8 8 8 10 12 13 15 16 17 19 21 23 23 24 25 26 26 26 24 22 21 18 16 15 14 14 13 13 13 14 18 21 21 23 25 27 27 26 26 25 23 23 23 23 22 23 21 19 17 17 17 16 16 15 14 14 14 13 12 12 12 12 13 12 11 9 9 9 10 11 11 12 12 11 10 9 9 10 12 11 10 10 11
7 7 7 7 8 10 11 13 16 18 19 21 23 25 25 25 26 26 27 26 24 23 22 20 18 16 14 12 12 13 13 14 20 24 24 24 26 27 27 27 26 25 24 24 24 23 22 21 19 17 17 17 17 16 16 14 14 14 14 13 12 12 13 14 14 14 13 11 11 11 12 12 11 11 10 9 9 9 7 6 7 7 7 7 8
7 7 7 7 8 10 12 15 17 19 21 22 24 25 25 26 27 27 27 27 26 25 24 22 20 19 17 12 11 14 15 17 20 24 25 25 27 28 27 27 27 25 23 22 23 23 22 19 17 16 17 17 17 17 16 15 14 14 13 13 13 14 15 15 16 16 15 14 13 14 14 14 13 13 13 14 14 15 15 14 13 12 9 8 8
8 7 7 7 8 10 13 15 18 20 22 23 24 24 25 26 27 27 27 27 27 27 28 26 24 23 21 15 12 13 17 18 20 23 24 26 27 28 27 26 26 25 24 22 22 23 21 19 18 17 17 17 17 16 16 15 15 14 12 12 13 15 16 17 17 17 17 17 18 19 20 19 18 18 18 18 19 18 17 16 15 14 12 10 9
7 7 8 8 9 12 14 17 19 21 22 23 23 23 23 24 25 26 27 28 28 28 30 30 28 27 25 20 14 12 15 18 21 22 22 23 26 27 27 27 26 25 25 23 22 23 21 20 20 18 18 18 17 16 16 15 15 14 13 13 14 16 17 18 19 19 19 21 22 23 24 23 22 21 20 19 18 18 17 16 14 13 12 11 10
7 7 8 10 12 15 17 19 20 21 21 23 23 23 23 24 25 26 27 29 29 29 30 31 31 30 28 24 17 11 9 13 18 19 19 20 23 24 24 25 25 24 24 23 23 23 22 22 20 18 18 18 17 16 16 16 16 15 14 14 16 18 20 21 21 22 23 24 23 22 22 23 22 21 18 16 15 15 15 15 14 13 13 12 11
7 7 9 12 14 16 18 19 20 20 21 23 24 24 24 24 25 27 28 29 29 29 30 31 31 31 30 25 19 12 5 1 5 11 16 19 19 20 20 20 21 22 22 22 23 24 23 22 21 19 19 18 17 17 16 15 16 16 15 17 19 20 22 23 23 24 24 23 22 21 20 19 19 18 16 15 15 15 15 14 14 13 12 11 9
6 8 10 12 14 15 16 18 19 20 22 23 23 23 24 25 27 28 29 29 30 31 31 31 31 31 30 26 21 16 11 8 7 7 12 17 18 18 17 18 19 20 19 19 21 23 23 22 21 20 20 19 18 17 16 15 16 17 18 19 21 22 23 23 22 22 21 21 20 19 19 19 19 18 17 15 14 14 14 14 14 14 12 11 10
8 10 11 14 16 16 17 18 19 21 22 22 22 23 24 26 28 30 31 31 33 32 30 30 30 29 29 27 22 18 16 13 12 13 14 16 19 19 17 17 17 18 18 17 18 23 24 22 22 21 20 20 18 17 16 15 15 17 19 21 23 23 23 22 19 18 19 19 19 18 18 19 19 18 17 15 13 12 13 14 15 15 14 13 13
10 12 14 17 17 18 19 20 22 22 21 21 22 24 25 27 28 28 30 33 34 32 29 29 29 28 28 27 23 20 18 16 16 17 16 17 20 22 20 19 19 20 20 18 19 23 25 23 22 21 20 20 19 17 18 18 17 18 20 22 24 24 23 23 21 18 17 17 18 17 16 16 17 17 16 14 12 11 12 14 15 15 16 15 15
12 13 14 16 17 19 22 23 24 23 22 21 22 24 26 27 26 26 29 32 32 30 28 27 27 27 26 26 24 22 20 18 18 20 21 20 22 23 23 23 23 23 23 20 20 24 26 23 22 22 22 21 20 19 19 19 19 20 21 22 25 25 25 25 24 22 19 17 17 17 15 14 15 15 15 14 11 10 11 13 12 13 15 16 14
14 15 16 17 20 21 22 23 23 22 22 23 23 24 25 25 25 26 29 29 27 27 28 28 28 27 27 26 25 23 22 20 19 19 22 24 25 25 26 26 26 26 26 23 22 24 25 23 22 23 22 21 21 20 19 20 20 20 21 22 24 25 26 25 23 23 21 19 17 17 16 15 15 15 14 13 10 8 8 9 8 9 13 14 13
15 17 18 20 21 21 21 22 22 22 23 24 24 25 25 25 26 28 27 25 23 26 30 32 31 28 27 27 26 24 22 21 19 19 22 26 27 27 26 26 26 26 26 24 23 24 25 25 23 21 20 20 19 18 19 21 22 22 21 20 19 21 23 23 21 20 19 18 17 17 16 15 13 12 11 9 9 8 8 9 10 13 16 16 15
18 19 20 20 20 22 22 22 23 23 24 25 25 25 25 26 28 27 25 22 22 26 30 33 33 30 28 27 26 24 22 21 19 20 23 26 28 28 28 27 26 25 25 24 24 25 26 27 25 22 20 19 17 15 15 18 19 20 19 16 15 17 17 15 15 17 17 17 16 15 15 13 11 10 10 10 11 12 13 15 18 19 19 17 16
18 19 19 19 20 20 21 22 22 24 25 25 25 25 25 27 26 25 24 24 24 26 29 32 33 33 30 27 25 23 22 21 20 20 23 25 26 27 27 27 26 25 25 24 24 24 25 26 26 24 21 19 17 14 13 14 14 15 16 13 12 14 13 11 13 17 18 18 16 15 14 13 12 13 14 15 16 17 18 20 21 20 18 16 14
18 18 18 19 19 19 21 21 21 22 23 24 24 24 25 25 24 24 26 27 27 27 29 30 31 31 30 28 25 23 21 20 19 19 21 22 22 22 23 23 23 23 24 23 22 22 23 25 26 25 23 20 18 16 14 13 12 12 12 12 12 13 13 14 17 19 19 17 17 17 16 16 16 18 19 20 20 20 21 21 19 17 16 13 12
17 17 18 19 19 20 21 21 20 20 20 21 22 22 22 22 21 23 25 27 28 30 31 30 30 30 29 27 26 24 22 20 19 19 19 19 18 18 20 20 19 20 21 20 19 19 21 23 23 23 22 20 19 18 18 17 15 15 14 14 14 15 15 16 18 19 19 18 19 20 20 20 21 21 21 22 22 21 20 19 17 15 14 13 13
17 17 17 18 19 21 21 21 21 20 19 19 20 19 18 18 19 20 22 24 26 28 30 30 30 29 28 27 27 25 23 20 20 19 20 19 18 18 19 19 19 19 20 19 19 20 21 22 22 20 19 17 16 16 16 16 15 16 16 15 15 15 15 16 19 20 20 21 23 23 23 23 22 22 21 22 22 20 18 17 16 15 15 15 14
15 16 17 18 19 19 19 19 19 19 19 19 19 18 17 16 17 19 21 22 24 26 27 28 29 30 29 28 27 26 24 22 20 19 19 20 20 20 21 21 21 20 20 20 20 20 20 20 19 17 15 14 13 12 11 10 9 9 10 11 12 14 15 16 20 22 23 25 25 25 24 23 23 22 21 21 20 18 17 17 17 17 17 16 16
14 15 17 18 19 19 18 17 17 17 17 18 18 18 16 14 15 17 19 20 23 24 25 25 26 28 29 29 27 25 24 24 23 21 20 20 20 20 20 21 20 18 18 18 18 17 16 16 15 14 12 11 10 9 7 6 4 4 5 7 8 11 13 16 20 24 26 27 27 26 25 24 22 21 21 20 19 19 18 19 18 18 18 17 17
12 13 15 17 18 18 17 17 16 15 16 16 17 17 17 15 15 15 15 17 18 20 22 22 23 24 26 27 27 25 23 23 24 24 23 21 19 18 18 18 16 14 14 14 14 14 13 12 12 11 9 7 6 5 4 4 4 5 6 7 9 12 15 18 22 26 27 28 27 26 24 23 21 21 21 20 19 19 19 19 19 18 18 18 18
10 11 13 15 16 16 16 16 16 16 16 17 17 17 17 17 17 16 16 16 15 16 18 19 20 21 23 24 26 26 24 22 21 22 23 23 20 18 16 16 14 13 11 10 11 12 11 9 9 9 7 4 2 2 3 4 4 6 7 9 11 14 18 22 26 27 27 27 26 24 23 21 20 20 20 19 19 19 19 20 20 19 19 19 19
8 9 10 10 11 13 14 14 14 14 15 16 17 17 16 16 17 17 18 18 16 15 16 16 17 18 19 21 23 24 23 22 20 19 19 20 20 19 17 15 14 12 10 9 9 9 9 7 7 7 6 5 3 3 4 5 6 7 9 11 15 18 21 24 25 25 25 24 23 23 22 20 19 19 19 19 18 18 19 20 20 20 20 19 20
Wind_Direction
120 164 211 207 193 198 201 206 210 211 214 215 215 219 219 215 211 208 209 212 211 212 214 215 212 206 208 214 218 221 223 224 224 223 228 233 237 241 241 241 240 235 228 223 224 219 210 214 221 221 218 211 213 213 205 203 205 203 199 195 189 174 163 160 158 149 136 131 136 140 150 173 184 183 192 199 200 201 199 197 195 192 192 194 202
134 195 222 217 205 205 205 206 207 210 212 213 215 220 220 216 212 210 211 213 212 214 215 216 216 214 213 216 219 222 225 225 224 224 227 231 238 244 245 245 241 237 231 225 224 219 210 215 221 221 215 210 215 212 202 204 205 202 193 182 179 172 163 162 162 151 139 141 138 123 116 121 120 132 170 191 202 204 202 202 201 201 203 203 209
191 208 211 207 209 200 200 205 210 214 212 211 216 220 219 215 213 212 213 216 217 217 218 218 219 220 221 220 220 221 226 227 226 226 225 228 239 245 244 241 240 239 236 232 230 224 216 219 224 220 209 204 211 205 193 199 200 196 194 185 174 166 163 167 166 158 149 145 137 129 125 119 112 113 140 159 185 194 196 203 209 210 214 217 216
210 212 178 166 177 182 192 205 212 215 212 211 216 219 220 218 218 217 219 224 224 220 219 220 220 220 221 223 223 223 227 230 228 224 222 226 237 244 243 240 240 240 233 230 230 225 219 223 224 217 210 209 212 206 197 199 200 194 192 189 179 165 162 171 174 169 160 152 137 115 114 139 187 163 146 148 160 171 184 200 213 217 221 223 218
205 207 176 147 166 181 192 206 212 213 212 212 215 217 219 221 221 223 229 233 232 227 223 219 218 218 218 219 221 222 224 225 218 213 216 221 230 243 249 246 240 233 228 226 223 218 219 223 223 220 218 217 217 214 208 206 208 202 194 192 190 182 173 174 179 180 174 169 157 138 130 197 208 155 149 157 165 168 173 190 212 222 223 224 223
208 208 185 160 166 180 197 209 212 215 216 217 220 221 220 228 231 232 240 243 239 235 231 225 220 217 211 208 209 209 210 212 210 209 216 220 224 234 245 245 234 227 228 227 219 217 218 217 217 219 218 215 215 217 214 209 208 206 202 200 201 199 186 177 180 182 182 183 172 162 167 190 172 158 158 154 155 169 179 193 217 221 212 220 230
241 196 176 158 172 189 205 217 231 247 246 344 25 26 7 310 274 254 251 251 246 241 239 234 227 222 215 209 210 211 212 215 217 220 225 229 228 229 234 236 233 232 232 227 217 217 217 211 209 213 213 214 215 218 217 210 206 207 209 207 207 207 197 186 182 180 184 189 184 173 162 172 172 169 171 156 145 168 179 194 221 222 214 225 233
44 109 116 174 205 211 328 21 25 33 42 36 26 18 309 274 272 270 264 257 255 252 244 236 230 228 224 219 219 221 224 227 229 229 230 232 230 227 227 228 233 237 236 228 217 215 216 211 210 212 213 216 218 218 218 212 209 209 210 208 209 212 209 200 190 184 186 190 187 181 162 171 178 180 182 164 143 157 168 187 210 214 228 233 230
38 45 47 19 14 29 38 41 40 48 59 52 284 263 261 257 263 272 271 266 270 269 254 244 237 235 232 228 227 229 233 240 241 236 230 229 227 227 228 228 234 236 232 226 214 209 213 211 212 216 215 217 220 221 219 215 213 214 212 209 210 212 211 208 201 195 195 194 191 189 175 168 176 185 182 160 135 151 171 180 178 182 209 215 210
30 30 28 27 37 51 57 52 41 43 59 69 173 256 267 267 272 279 280 277 281 284 275 262 253 247 244 240 237 238 241 247 250 242 234 232 231 232 232 231 235 234 229 225 210 202 209 210 211 216 214 216 221 222 221 217 214 217 218 215 212 211 208 207 209 209 205 201 198 195 180 169 169 172 174 165 137 139 163 166 169 176 179 177 191
26 29 28 28 38 51 56 47 33 31 39 46 48 22 333 305 298 299 301 296 292 294 300 301 285 266 258 254 259 273 257 243 241 238 237 238 237 237 236 234 235 232 227 227 216 205 211 213 213 216 217 218 219 219 220 218 217 218 220 218 213 211 210 209 212 214 210 207 206 205 201 193 190 195 190 183 168 147 147 154 172 181 165 158 182
31 33 32 30 32 37 39 37 31 32 28 25 29 21 5 350 333 325 325 321 311 303 304 318 320 285 263 352 302 271 254 240 233 235 241 243 242 241 240 240 240 234 227 225 221 214 215 219 220 219 218 218 217 216 217 218 220 218 217 218 216 212 213 213 214 216 215 213 213 214 216 216 217 226 212 196 187 169 151 144 160 169 156 156 182
36 37 37 38 37 33 32 32 33 35 28 17 13 6 0 358 354 347 342 340 335 326 312 316 327 286 243 261 264 255 245 235 228 234 244 247 246 243 242 242 241 237 229 224 219 215 218 223 223 220 217 216 216 216 216 218 221 219 215 216 215 212 212 214 217 219 220 223 223 220 218 222 226 233 226 202 191 170 149 138 148 165 162 146 173
31 34 36 39 39 38 34 29 30 30 25 19 11 4 0 356 353 350 345 341 341 346 338 312 285 260 258 264 266 256 242 230 227 237 244 246 244 243 243 242 239 235 230 225 219 214 218 224 224 221 217 217 217 216 216 219 218 217 215 213 212 211 211 213 218 221 224 229 229 223 219 221 224 227 224 205 193 180 163 149 146 158 162 135 149
24 26 31 30 29 33 31 28 28 25 22 22 17 11 4 354 350 347 343 335 326 334 343 317 277 259 260 270 271 258 242 236 238 238 241 244 242 242 244 243 241 238 232 225 220 214 213 218 223 224 220 218 216 215 215 215 213 212 212 213 210 209 211 214 218 222 227 229 228 224 220 220 223 222 220 212 203 200 188 171 160 153 149 140 144
26 25 25 21 22 25 24 24 25 23 20 19 18 17 11 2 354 346 340 327 308 304 305 302 282 259 259 270 267 254 246 247 243 234 234 241 243 246 249 247 245 243 237 229 223 216 210 209 217 223 225 221 215 213 213 208 206 208 208 208 207 207 210 212 216 221 225 227 223 219 218 219 220 220 218 214 209 210 207 191 177 167 157 149 161
26 26 23 19 19 18 16 18 19 20 17 14 14 15 12 8 0 353 346 333 316 300 283 280 274 259 262 266 254 244 245 250 247 240 240 242 243 248 252 252 249 246 241 234 225 218 211 207 210 214 220 225 215 207 208 205 203 206 205 204 204 206 207 209 213 217 217 218 216 213 214 216 214 215 217 215 211 212 211 205 197 186 171 153 161
18 17 18 17 15 9 8 11 13 15 15 12 11 10 8 6 1 358 352 345 338 322 292 275 270 262 258 256 248 241 243 249 251 251 250 245 242 246 249 251 251 246 241 235 227 218 212 209 211 209 209 220 218 206 202 204 204 205 205 205 206 206 206 208 210 212 212 212 212 210 210 213 213 214 216 216 215 216 213 211 209 200 186 170 165
13 13 11 9 7 2 2 5 7 9 9 8 8 7 5 2 359 357 352 349 349 341 318 289 281 276 264 256 254 250 247 249 250 251 251 245 242 246 247 247 248 244 236 232 228 222 215 210 210 207 199 209 220 212 202 203 204 203 203 204 206 205 205 207 208 210 211 208 206 206 205 207 211 211 209 212 212 212 213 213 209 202 199 195 179
8 9 6 1 359 358 2 4 4 5 4 4 5 6 6 3 358 354 350 348 348 345 337 318 302 297 291 281 272 266 260 256 251 246 245 242 238 239 242 243 243 237 230 229 228 223 216 209 204 202 196 201 215 214 205 203 203 202 201 200 202 203 204 207 208 207 206 203 203 203 203 205 205 202 198 199 199 201 207 213 210 204 203 207 195
8 5 359 354 356 358 3 6 6 5 3 3 4 2 3 2 358 353 351 349 346 342 339 333 323 310 302 295 285 281 278 269 259 250 244 241 238 233 234 238 236 230 226 225 225 219 212 206 199 194 191 197 209 210 205 204 203 204 204 202 203 204 205 206 204 201 198 197 199 198 199 203 200 198 198 194 192 194 201 208 208 205 204 206 205
7 358 350 348 354 359 3 7 9 6 2 1 2 1 0 358 356 354 353 351 347 341 336 332 327 320 313 305 293 286 275 261 253 247 241 239 237 234 232 230 227 225 223 220 220 214 208 203 196 187 181 189 203 208 207 205 205 207 207 204 205 205 204 204 201 199 197 195 197 197 198 199 196 200 203 197 192 194 200 204 203 204 206 208 211
4 354 347 346 352 358 3 8 8 5 0 359 360 359 357 354 355 356 356 356 353 347 338 327 322 322 323 318 300 275 260 250 241 237 239 240 236 235 233 226 222 222 219 216 215 211 206 202 194 184 178 185 198 206 208 208 208 209 207 205 206 205 204 202 199 199 199 198 196 194 196 197 194 198 200 194 191 194 199 200 199 202 207 210 214
4 355 347 346 352 358 2 5 4 360 358 358 358 356 353 353 354 355 354 355 355 352 346 335 323 321 324 324 307 276 262 254 244 240 243 244 237 233 231 224 221 219 215 213 212 208 205 201 193 184 181 187 195 199 203 207 207 206 206 204 202 201 202 203 200 199 199 198 195 192 193 194 191 192 194 192 190 194 198 196 197 203 208 212 217
4 357 350 347 353 357 359 358 355 351 351 354 354 354 353 352 353 354 352 352 353 354 352 343 331 322 323 326 313 293 275 258 250 247 247 246 240 235 231 222 217 216 211 208 205 202 202 201 195 188 185 189 195 198 201 203 202 202 203 201 197 195 196 197 197 201 201 197 194 191 189 190 188 187 190 193 194 195 196 194 196 203 208 212 217
7 0 352 348 351 353 352 351 350 348 349 351 351 353 356 355 356 357 354 350 350 352 352 348 339 327 318 319 313 300 284 258 245 243 244 242 236 231 227 220 215 212 206 200 197 197 198 200 199 193 187 189 194 199 204 204 201 201 200 196 192 191 191 189 190 197 200 196 191 188 188 191 192 190 189 193 196 197 197 197 200 206 211 214 218
10 5 359 353 350 347 346 347 348 350 351 351 351 354 356 356 358 0 357 353 350 350 350 347 342 332 315 306 307 300 287 267 244 235 236 235 228 224 221 217 214 207 199 195 194 196 199 201 200 194 190 193 195 198 205 207 203 200 196 192 191 190 188 184 186 192 193 190 187 184 188 192 193 193 194 193 194 194 197 201 206 211 216 219 221
16 13 4 353 344 340 342 345 348 349 350 352 355 357 358 358 359 0 359 357 353 351 351 349 346 340 322 306 299 292 289 277 257 241 236 230 222 218 215 212 209 205 199 196 194 195 196 197 196 193 193 196 197 200 205 205 200 198 195 193 191 191 187 182 184 189 187 185 185 185 188 189 188 190 191 191 192 195 200 208 216 223 228 227 226
21 14 2 348 337 335 338 342 349 351 351 355 358 359 360 1 2 1 360 359 358 356 357 357 354 346 334 320 305 290 285 275 257 243 235 227 219 213 209 206 203 200 198 195 192 193 194 192 190 189 191 196 199 202 203 200 198 197 196 196 197 196 191 184 182 183 181 180 182 181 181 182 183 185 186 191 199 203 212 224 224 220 216 211 213
19 8 355 339 329 333 341 347 354 357 358 359 0 0 1 2 2 2 1 2 4 3 1 359 356 351 342 329 311 291 277 263 251 241 229 221 215 209 205 202 197 193 192 190 188 191 192 190 187 186 190 196 199 200 200 200 199 199 198 201 201 195 190 187 180 174 171 175 179 180 177 177 181 180 175 171 168 158 152 164 172 164 163 170 178
13 360 347 333 325 336 350 356 358 360 2 2 0 1 3 3 3 2 2 6 10 8 5 0 355 352 347 333 310 288 268 254 250 240 224 213 208 204 201 198 192 187 187 187 187 189 189 187 186 187 191 194 197 200 202 202 201 200 200 198 191 184 184 183 174 164 164 170 172 168 160 154 152 148 140 134 129 126 123 122 122 120 123 133 142
8 352 342 337 334 345 354 357 359 2 4 4 2 4 5 4 4 3 5 10 13 12 10 7 0 356 353 342 317 288 264 250 248 240 222 206 200 198 194 191 186 182 183 186 189 188 184 182 184 187 190 191 195 200 201 198 194 193 192 187 182 181 179 173 163 158 162 162 156 149 143 137 133 130 127 126 123 121 121 119 119 119 117 116 118
1 348 348 348 348 353 355 359 3 5 6 7 7 9 9 7 7 9 10 14 16 15 13 11 7 3 0 353 336 302 265 245 240 236 219 199 193 191 187 184 182 180 180 183 186 184 179 178 182 185 187 187 191 194 192 190 188 186 184 180 178 176 169 161 156 156 157 154 148 145 140 135 132 130 128 127 125 122 122 122 121 121 115 111 110
355 348 353 354 354 356 359 4 8 8 9 14 16 16 15 15 16 16 17 18 17 16 15 12 11 9 7 3 356 334 281 243 231 224 208 191 186 184 182 181 179 177 178 181 182 177 174 175 179 182 183 182 183 185 184 185 185 182 178 174 170 167 161 157 155 155 155 152 149 147 141 135 133 133 132 132 132 131 131 130 127 123 116 111 106
355 352 354 358 360 358 1 8 10 10 14 19 20 20 20 21 22 22 22 21 20 19 16 13 14 14 12 12 15 17 12 227 209 200 185 176 174 173 171 172 172 171 174 179 178 173 170 170 174 178 179 176 175 177 176 176 178 177 173 168 164 160 157 154 153 153 154 152 149 147 145 140 136 134 136 140 142 141 138 132 125 119 113 109 103
352 352 351 0 6 5 8 13 14 16 20 21 21 23 24 24 26 27 26 25 24 21 17 13 15 17 17 20 28 40 54 75 79 99 135 148 154 154 152 156 161 160 162 166 166 164 164 164 166 171 172 168 166 166 165 167 171 173 170 165 160 157 155 152 150 150 150 148 148 149 148 145 139 134 133 136 139 139 135 129 122 115 112 110 103
5 8 10 18 23 22 23 26 25 25 24 22 25 29 28 27 28 28 28 28 27 23 17 14 15 19 23 26 35 46 60 81 91 81 84 108 128 134 136 142 146 144 143 140 140 146 152 153 155 160 162 159 154 153 158 164 169 173 171 164 158 155 151 146 140 137 135 135 139 143 144 141 138 134 132 134 139 140 135 130 123 116 112 107 101
19 25 29 30 32 32 32 35 35 30 26 27 32 34 34 31 28 27 28 29 27 22 18 16 17 21 29 33 37 46 56 73 96 100 89 89 103 112 119 128 131 129 129 124 120 129 137 138 141 147 150 150 148 149 156 161 165 171 171 164 157 150 141 134 129 127 125 126 129 134 138 139 135 133 134 138 145 146 139 133 130 124 116 108 106
37 40 38 35 36 38 39 39 36 29 26 31 37 38 38 34 28 27 29 29 25 22 21 21 23 28 36 41 44 47 54 62 80 100 107 104 102 104 109 116 117 116 118 115 112 119 125 124 127 133 137 141 142 144 153 158 160 166 168 162 155 145 134 130 130 130 130 130 127 127 128 130 128 127 131 135 140 143 136 131 133 128 115 107 108
43 48 49 46 43 41 38 36 33 29 30 35 39 40 40 35 30 29 30 27 23 24 27 30 34 37 41 47 51 52 54 59 70 87 102 108 109 110 111 111 110 109 111 109 106 112 115 113 117 123 126 129 131 133 143 150 151 153 155 152 149 142 133 130 130 129 129 126 123 119 117 116 118 120 123 125 126 128 124 121 120 111 103 103 106
47 50 53 51 48 44 40 36 35 36 37 38 40 40 39 37 35 31 26 24 25 30 35 37 38 40 42 47 55 58 57 60 69 83 94 101 106 110 111 108 105 105 106 102 98 102 105 104 108 113 113 113 119 123 132 140 144 144 144 143 141 137 134 131 128 127 126 123 119 116 113 112 112 112 111 109 105 102 103 103 99 96 100 104 105
52 53 53 51 47 44 41 39 40 43 44 42 41 39 39 40 39 33 28 29 33 38 41 40 39 40 43 46 52 59 64 66 70 79 88 94 99 103 106 105 103 102 100 96 92 92 94 95 98 102 101 103 110 116 123 133 140 143 143 142 140 139 139 140 136 132 128 124 122 118 113 111 109 106 102 99 100 101 101 99 97 99 102 105 104
51 50 49 50 47 43 40 39 42 46 48 46 42 39 39 40 39 38 39 40 41 45 48 47 43 40 42 46 50 54 61 68 72 77 84 90 96 100 102 104 106 106 103 98 92 91 91 90 90 91 92 94 101 109 116 124 133 140 143 146 153 154 158 166 156 141 132 127 123 118 113 112 112 110 108 107 106 104 101 99 99 101 102 102 99
49 47 47 49 48 44 42 42 44 46 47 46 43 41 41 40 39 44 48 47 45 48 51 52 50 45 42 44 50 54 57 60 65 73 80 85 93 100 102 104 106 106 104 99 95 95 94 90 86 85 85 87 92 97 103 107 116 128 134 140 148 149 150 152 144 133 128 126 122 119 119 120 118 116 114 111 108 104 101 100 99 97 95 92 86
50 48 47 48 49 48 47 46 45 44 44 43 43 42 42 42 42 47 51 50 49 50 50 50 52 53 49 45 47 52 56 58 60 65 70 73 81 92 100 105 105 104 103 101 98 98 96 93 90 88 86 87 89 93 96 99 104 111 117 124 131 132 134 138 133 126 125 125 123 124 125 124 120 118 116 112 106 102 99 97 94 90 85 79 77
50 48 48 49 51 50 49 47 46 44 42 42 43 44 43 43 44 45 48 49 51 51 50 49 50 53 54 53 52 52 55 60 63 65 68 71 74 79 87 95 99 100 101 99 96 95 94 92 90 89 89 89 90 91 94 98 102 107 110 114 118 120 124 127 125 124 125 126 127 128 128 125 122 120 116 110 104 100 98 94 88 82 78 76 78
50 51 53 52 50 48 46 44 44 45 46 45 43 43 44 47 48 46 45 50 53 52 51 50 50 51 52 53 56 57 59 61 63 66 69 71 73 76 79 84 89 92 94 95 92 90 91 91 91 90 92 93 92 91 95 100 105 110 114 117 119 120 122 124 125 127 130 130 130 130 128 125 123 118 112 107 105 101 96 90 84 79 78 78 80
55 57 56 52 49 48 46 44 42 44 46 43 38 35 38 47 51 47 44 49 54 56 55 53 52 52 52 52 53 56 59 61 61 62 63 63 65 67 69 73 81 89 94 96 94 92 91 92 93 92 90 90 92 93 96 108 126 142 147 149 142 136 136 136 135 135 135 133 132 130 128 125 121 116 111 108 105 99 93 88 84 81 80 82 86
58 58 55 52 50 52 51 47 42 40 39 34 30 31 34 40 43 40 39 45 52 56 57 55 54 53 54 54 54 55 57 59 61 62 62 61 60 62 66 71 77 85 91 93 93 90 88 86 85 83 77 77 90 106 116 131 150 157 157 157 153 149 148 145 143 142 140 136 133 130 127 124 121 117 113 108 103 99 95 91 89 88 89 92 94
58 57 56 54 53 54 54 50 45 41 37 32 29 31 36 39 40 37 35 39 47 53 55 54 53 53 54 56 57 57 56 56 58 61 63 64 65 66 67 68 70 73 79 83 84 85 85 81 80 81 80 79 91 116 122 132 145 151 154 153 149 148 148 145 144 145 142 138 133 129 125 124 121 116 112 109 107 105 103 101 100 100 99 98 97
43 44 46 48 51 54 55 51 45 40 38 38 36 34 34 38 42 41 38 37 40 47 52 52 52 53 55 58 60 60 59 58 56 56 60 64 67 68 66 61 60 62 68 74 78 83 85 86 88 93 99 106 112 110 106 113 127 139 148 148 145 146 146 145 148 148 143 136 133 128 124 122 121 117 115 115 114 113 112 111 109 105 100 98 97